Flag for Kazakhstan Weather past 2 weeks in Astana, Kazakhstan

Now
55 °F

Sprinkles. More clouds than sun.


Feels Like: 51 °F
Forecast: 48 / 60 °F
Wind: 17 mph from North

Location: Astana

Current Time: Jul 28, 2014 at 5:33:21 PM

Latest Report: Jul 28, 2014 at 5:00 PM


Visibility: N/A

Pressure: 29.39 "Hg

Humidity: 88%

Dew point: 52 °F

Location of AstanaLocation

Historic Weather in Astana — Graph

°F

Astana temperature yesterday

Maximum temperature yesterday: 73 °F (at 4:30 PM)
Minimum temperature yesterday: 50 °F (at 6:00 AM)
Average temperature yesterday: 61 °F

Past Weeks' High & Low Weather Summary

 TemperatureHumidityPressure
High81 °F (Jul 18, 12:00 PM)100% (Jul 28, 7:00 AM)30.01 "Hg (Jul 28, 7:00 AM)
Low45 °F (Jul 22, 5:00 AM)20% (Jul 21, 2:30 PM)29.27 "Hg (Jul 24, 3:00 AM)
Average60 °F67%29.65 "Hg
* Reported Jul 13 4:00 PM — Jul 28 4:30 PM, Astana, Weather by CustomWeather, © 2014

Note: Actual official high and low records may vary slightly from our data, if they occured in-between our weather recording intervals... More about our weather records

Advertising

Astana weather history for previous 24 hours

 ConditionsComfort  
Time TempWeatherWind HumidityBarometerVisibility
4:30 PM
Jul 28
57 °FSprinkles. Broken clouds.17 mph82%29.36 "HgN/A
4:00 PM57 °FThundershowers. Broken clouds.15 mph77%29.36 "HgN/A
3:30 PM63 °FThundershowers. Broken clouds.15 mph59%29.33 "HgN/A
3:00 PM64 °FBroken clouds.15 mph60%29.33 "HgN/A
2:30 PM64 °FBroken clouds.6 mph52%29.33 "HgN/A
2:00 PM63 °FPartly sunny.6 mph59%29.36 "HgN/A
1:30 PM61 °FMore clouds than sun.6 mph63%29.36 "HgN/A
1:00 PM61 °FMore clouds than sun.8 mph68%29.36 "HgN/A
12:30 PM59 °FMore clouds than sun.8 mph72%29.36 "HgN/A
12:00 PM57 °FLight rain. More clouds than sun.8 mph82%29.36 "HgN/A
11:30 AM55 °FLight rain. More clouds than sun.10 mph88%29.39 "HgN/A
11:00 AM55 °FLight rain. More clouds than sun.6 mph88%29.39 "HgN/A
10:30 AM55 °FLight rain. More clouds than sun.3 mph88%29.39 "HgN/A
10:00 AM55 °FLight rain. More clouds than sun.3 mph88%29.39 "HgN/A
9:30 AM54 °FLow clouds.3 mph94%29.39 "HgN/A
8:30 AM52 °FFog.3 mph100%29.39 "Hg3 mi
8:00 AM52 °FFog.1 mph100%29.39 "Hg1 mi
7:30 AM52 °FFog.3 mph94%29.39 "Hg0 mi
7:00 AM50 °FFog.3 mph100%29.39 "Hg0 mi
6:30 AM50 °FFog.6 mph94%29.39 "Hg0 mi
6:00 AM52 °FFog.6 mph94%29.39 "Hg1 mi
5:30 AM52 °FMostly cloudy.8 mph94%29.42 "HgN/A
5:00 AM50 °FFog.6 mph94%29.42 "Hg3 mi
4:30 AM50 °FFog.3 mph94%29.42 "Hg2 mi
4:00 AM52 °FClear.8 mph94%29.42 "Hg10 mi
3:30 AM52 °FClear.8 mph94%29.42 "Hg10 mi
3:00 AM52 °FFog.8 mph94%29.45 "Hg2 mi
2:30 AM52 °FFog.3 mph94%29.45 "Hg3 mi
2:00 AM54 °FFog.6 mph88%29.45 "Hg2 mi
1:30 AM54 °FPassing clouds.6 mph88%29.47 "Hg6 mi
1:00 AM54 °FPassing clouds.3 mph88%29.47 "HgN/A
12:30 AM54 °FPassing clouds.1 mph88%29.50 "HgN/A
12:00 AM55 °FPassing clouds.6 mph88%29.50 "HgN/A
11:30 PM
Jul 27
55 °FPassing clouds.8 mph88%29.50 "HgN/A
11:00 PM57 °FThundershowers. Partly cloudy.8 mph82%29.50 "HgN/A
10:30 PM59 °FThundershowers. Partly cloudy.8 mph77%29.50 "HgN/A
10:00 PM59 °FPartly cloudy.13 mph77%29.53 "HgN/A
9:30 PM61 °FPartly cloudy.8 mph77%29.53 "HgN/A
9:00 PM61 °FThundershowers. Broken clouds.8 mph72%29.53 "HgN/A
8:30 PM59 °FThundershowers. Broken clouds.10 mph77%29.56 "HgN/A
8:00 PM64 °FThundershowers. Broken clouds.13 mph64%29.56 "HgN/A
7:30 PM66 °FBroken clouds.15 mph52%29.56 "HgN/A
7:00 PM70 °FBroken clouds.8 mph46%29.53 "HgN/A
6:30 PM72 °FBroken clouds.6 mph44%29.53 "HgN/A
6:00 PM72 °FBroken clouds.6 mph38%29.53 "HgN/A
5:30 PM72 °FBroken clouds.8 mph38%29.56 "HgN/A
5:00 PM73 °FBroken clouds.8 mph31%29.56 "HgN/A
Weather by CustomWeather, © 2014

See weather overviewHow to use our weather pages